EST,Max TemperatureF,Mean TemperatureF,Min TemperatureF,Max Dew PointF,MeanDew PointF,Min DewpointF,Max Humidity, Mean Humidity, Min Humidity, Max Sea Level PressureIn, Mean Sea Level PressureIn, Min Sea Level PressureIn, Max VisibilityMiles, Mean VisibilityMiles, Min VisibilityMiles, Max Wind SpeedMPH, Mean Wind SpeedMPH, Max Gust SpeedMPH,PrecipitationIn, CloudCover, Events, WindDirDegrees
2012-11-1,58,50,41,42,38,35,89,66,43,29.75,29.70,29.66,10,10,10,17,5,23,0.00,3,,277
2012-11-2,56,50,44,39,33,28,76,57,38,29.91,29.79,29.74,10,10,10,23,10,31,0.00,5,,275
2012-11-3,51,48,44,32,31,29,62,52,42,30.06,29.98,29.91,10,10,10,22,10,29,0.00,6,,294
2012-11-4,53,43,33,34,31,30,89,67,44,30.09,30.05,30.01,10,10,10,14,4,18,0.00,2,,293
2012-11-5,49,41,32,31,28,25,75,59,42,30.19,30.09,30.02,10,10,10,18,6,24,0.00,3,,339
2012-11-6,43,37,31,30,26,24,78,70,62,30.19,30.18,30.16,10,10,10,8,4,,0.00,1,,353
2012-11-7,47,43,38,,,,,,,,,,,,,20,13,28,0.27,,,
2012-11-8,54,46,38,,,,,,,,,,,,,24,11,31,0.01,,,
2012-11-9,56,46,36,,,,,,,,,,,,,16,6,21,0.00,,,
2012-11-10,67,51,34,,,,,,,,,,,,,9,3,13,0.00,,,
2012-11-11,73,58,42,,,,,,,,,,,,,13,4,16,0.00,,,
2012-11-12,75,60,45,,,,,,,,,,,,,18,7,27,0.00,,,
2012-11-13,67,54,41,,,,,,,,,,,,,22,,31,0.09,,,
2012-11-14,51,44,36,34,29,27,70,56,41,30.46,30.44,30.39,10,10,10,16,7,22,0.00,3,,358
2012-11-15,53,49,44,38,36,35,71,63,54,30.40,30.34,30.28,10,10,10,15,7,20,0.00,6,,16
2012-11-16,53,43,32,36,31,27,75,58,41,30.43,30.34,30.27,10,10,10,14,6,17,0.00,4,,349
2012-11-17,56,44,31,43,37,27,82,68,54,30.57,30.53,30.42,10,10,10,17,8,23,0.00,3,,22
2012-11-18,58,52,45,43,41,39,83,70,57,30.56,30.52,30.45,10,10,10,25,12,31,0.00,2,,31
2012-11-19,53,51,48,45,43,42,80,76,71,30.42,30.31,30.19,10,10,10,16,10,23,0.00,8,,14
2012-11-20,58,49,39,45,42,34,86,71,55,30.18,30.14,30.09,10,10,8,15,5,17,0.00,4,,15
2012-11-21,58,48,37,42,38,34,89,68,47,30.21,30.16,30.11,10,9,5,16,6,21,0.00,2,,9
2012-11-22,61,49,37,44,38,33,86,69,51,30.24,30.19,30.15,10,8,2,14,6,18,0.00,1,,8
2012-11-23,62,49,35,45,39,32,92,66,39,30.15,29.98,29.76,10,5,0,13,3,14,0.00,2,Fog,205
2012-11-24,53,45,36,37,22,18,59,48,36,30.04,29.92,29.78,10,10,10,26,15,36,0.00,5,,303
2012-11-25,46,37,28,24,22,20,78,56,34,30.10,30.04,29.99,10,10,10,17,7,23,0.00,1,,241
2012-11-26,58,43,28,32,28,22,85,57,29,30.25,30.17,30.03,10,10,10,8,2,13,0.00,0,,54
2012-11-27,57,46,35,47,41,32,89,76,62,30.22,30.17,30.10,10,7,2,16,6,20,0.07,8,Rain,350
2012-11-28,47,38,28,36,29,22,85,64,42,30.39,30.28,30.19,10,8,5,18,7,23,0.00,4,,323
2012-11-29,52,38,24,30,24,20,88,59,30,30.48,30.41,30.38,10,10,9,14,3,20,0.00,0,,244
2012-11-30,58,43,27,39,32,23,85,64,43,30.40,30.36,30.31,10,8,6,9,3,12,0.00,0,,178